�N����,����,�~����,�C��,���x,�C��,����,���ϕ���,�ő�u�ԕ���,�ő厞����,���˗�,�I�_���x,�n�����x,�ő啗���N��,DTYPE
"17/08/23","00:10",0.0,26.0,89.4,1008.3,345.2,0.7,1.1,350.9,0.00,24.2,27.4,"00:04:56",1
"17/08/23","00:20",0.0,26.0,89.4,1008.6,330.1,0.7,1.1,345.5,0.00,24.2,27.2,"00:14:40",1
"17/08/23","00:30",0.0,25.9,89.2,1008.3,319.2,0.8,1.8,303.8,0.00,24.0,27.3,"00:23:52",1
"17/08/23","00:40",0.0,25.8,89.1,1008.3,330.5,1.2,1.9,326.4,0.00,23.9,27.5,"00:33:28",1
"17/08/23","00:50",0.0,25.8,88.9,1008.3,319.0,1.0,1.7,343.4,0.00,23.9,27.1,"00:48:48",1
"17/08/23","01:00",0.0,25.9,89.1,1008.3,318.9,0.7,1.6,337.5,0.00,24.0,27.3,"00:50:08",1
"17/08/23","01:10",0.0,25.8,89.5,1008.8,290.4,0.3,0.8,301.9,0.00,24.0,27.2,"01:02:24",1
"17/08/23","01:20",0.0,25.7,89.8,1008.6,316.1,0.7,1.2,333.4,0.00,23.9,27.1,"01:15:52",1
"17/08/23","01:30",0.0,25.6,90.1,1008.3,301.5,0.6,1.1,340.7,0.00,23.9,27.0,"01:20:40",1
"17/08/23","01:40",0.0,25.6,90.3,1008.6,275.9,0.6,1.1,245.2,0.00,23.9,27.0,"01:39:12",1
"17/08/23","01:50",0.0,25.7,90.1,1007.8,285.8,0.7,1.3,260.9,0.00,24.0,27.2,"01:43:20",1
"17/08/23","02:00",0.0,25.7,89.8,1008.1,292.2,0.6,1.0,265.0,0.00,23.9,27.1,"01:54:40",1
"17/08/23","02:10",0.0,25.7,89.6,1008.3,288.3,0.6,1.0,319.6,0.00,23.9,27.0,"02:09:36",1
"17/08/23","02:20",0.0,25.7,89.7,1008.8,305.1,1.1,2.0,338.7,0.00,23.9,27.0,"02:10:02",1
"17/08/23","02:30",0.0,25.8,89.4,1008.8,318.5,1.6,3.2,328.6,0.00,24.0,27.0,"02:22:08",1
"17/08/23","02:40",0.4,25.8,89.6,1008.8,315.5,0.7,1.4,335.6,0.00,24.0,27.0,"02:30:08",1
"17/08/23","02:50",0.0,25.7,90.1,1008.6,250.6,0.2,0.6,321.5,0.00,24.0,27.1,"02:48:16",1
"17/08/23","03:00",0.0,25.6,90.8,1008.3,315.7,0.5,1.1,337.7,0.00,24.0,27.0,"02:53:44",1
"17/08/23","03:10",0.0,25.5,91.2,1008.6,320.5,0.5,1.3,338.4,0.00,24.0,26.9,"03:05:04",1
"17/08/23","03:20",0.0,25.4,91.6,1008.6,336.1,0.6,1.2,358.2,0.00,24.0,26.7,"03:14:32",1
"17/08/23","03:30",0.0,25.3,91.9,1008.6,338.6,0.6,1.2,352.1,0.00,23.9,26.9,"03:25:04",1
"17/08/23","03:40",0.0,25.3,92.5,1008.6,329.2,0.5,1.4,356.4,0.00,24.0,26.8,"03:32:56",1
"17/08/23","03:50",0.0,25.3,92.5,1008.3,339.5,1.1,2.4,344.7,0.00,24.0,26.7,"03:49:52",1
"17/08/23","04:00",0.0,25.2,92.3,1008.6,335.2,1.0,2.8,343.7,0.00,23.9,26.7,"03:50:08",1
"17/08/23","04:10",0.0,25.1,92.4,1008.3,340.9,0.7,1.4,351.0,0.00,23.8,26.7,"04:04:56",1
"17/08/23","04:20",0.0,25.1,92.5,1008.3,344.5,0.8,1.6,343.6,0.00,23.8,26.9,"04:13:12",1
"17/08/23","04:30",0.0,25.2,92.8,1008.6,6.5,0.6,1.0,5.6,0.00,24.0,26.6,"04:20:08",1
"17/08/23","04:40",0.0,25.1,92.7,1008.8,357.3,0.6,0.9,357.5,0.00,23.9,26.8,"04:31:52",1
"17/08/23","04:50",0.0,25.0,92.9,1009.0,335.3,0.6,1.2,341.8,0.00,23.8,26.7,"04:47:36",1
"17/08/23","05:00",0.0,25.0,93.1,1008.8,302.4,0.3,1.0,326.4,0.00,23.8,26.7,"04:53:20",1
"17/08/23","05:10",0.0,25.0,93.2,1008.8,323.7,0.3,1.0,340.8,0.00,23.9,26.7,"05:03:04",1
"17/08/23","05:20",0.0,24.9,93.1,1008.6,342.6,0.3,0.9,335.8,0.00,23.7,26.8,"05:14:32",1
"17/08/23","05:30",0.0,24.9,93.2,1008.8,349.5,0.5,1.3,334.7,0.00,23.8,26.7,"05:20:16",1
"17/08/23","05:40",0.0,24.9,93.4,1008.8,348.0,0.6,0.9,341.2,0.00,23.8,26.6,"05:38:00",1
"17/08/23","05:50",0.0,24.8,93.5,1009.0,320.4,0.7,1.4,345.4,0.00,23.7,26.7,"05:40:32",1
"17/08/23","06:00",0.0,24.8,93.5,1009.0,313.6,0.6,1.3,340.3,0.00,23.7,26.7,"05:58:56",1
"17/08/23","06:10",0.0,24.9,93.6,1008.8,317.4,0.7,1.6,337.2,0.00,23.8,26.5,"06:04:40",1
"17/08/23","06:20",0.0,25.0,93.5,1009.3,300.0,0.5,1.1,338.2,0.00,23.9,26.5,"06:13:28",1
"17/08/23","06:30",0.0,25.1,93.5,1009.3,296.3,0.5,1.0,342.9,0.00,24.0,26.7,"06:25:12",1
"17/08/23","06:40",0.0,25.2,93.5,1009.0,350.9,0.2,1.0,345.9,0.00,24.1,26.6,"06:33:28",1
"17/08/23","06:50",0.0,25.3,93.5,1008.8,294.5,0.3,0.6,343.5,0.01,24.2,26.6,"06:47:28",1
"17/08/23","07:00",0.0,25.5,93.4,1008.8,313.4,0.5,1.0,340.0,0.01,24.4,26.4,"06:53:36",1
"17/08/23","07:10",0.0,25.7,93.4,1008.8,322.1,0.3,0.9,341.2,0.01,24.6,26.8,"07:05:44",1
"17/08/23","07:20",0.0,25.8,93.5,1008.6,337.2,0.3,0.6,340.2,0.02,24.7,26.6,"07:10:08",1
"17/08/23","07:30",0.0,26.0,93.2,1008.6,336.1,0.3,0.9,337.0,0.01,24.9,26.5,"07:22:56",1
"17/08/23","07:40",0.0,26.0,93.0,1008.6,287.6,0.2,0.6,318.0,0.01,24.8,26.7,"07:35:04",1
"17/08/23","07:50",0.0,26.2,92.8,1008.6,348.1,0.1,0.5,345.6,0.04,25.0,26.6,"07:47:52",1
"17/08/23","08:00",0.0,26.8,92.1,1008.3,357.8,0.6,1.3,347.0,0.08,25.4,26.7,"07:56:16",1
"17/08/23","08:10",0.0,27.2,91.1,1009.0,326.9,0.3,1.1,342.8,0.09,25.7,26.9,"08:05:12",1
"17/08/23","08:20",0.0,27.7,88.6,1008.6,190.3,0.1,0.6,235.5,0.10,25.7,26.8,"08:16:16",1
"17/08/23","08:30",0.0,28.2,87.1,1008.6,269.4,0.2,0.6,3.5,0.12,25.9,27.0,"08:20:16",1
"17/08/23","08:40",0.0,28.6,85.5,1008.6,327.2,0.2,1.6,346.6,0.12,26.0,27.3,"08:36:32",1
"17/08/23","08:50",0.0,28.7,83.7,1008.1,261.3,0.2,0.9,328.0,0.11,25.7,27.2,"08:40:32",1
"17/08/23","09:00",0.2,29.1,83.0,1008.1,347.5,0.3,0.9,1.8,0.15,26.0,27.2,"08:56:08",1
"17/08/23","09:10",0.0,29.7,80.7,1008.3,42.9,0.7,1.7,355.1,0.21,26.1,27.3,"09:09:04",1
"17/08/23","09:20",0.0,29.8,79.9,1008.8,33.2,0.7,1.3,44.4,0.19,26.0,27.3,"09:10:24",1
"17/08/23","09:30",0.0,29.8,81.4,1008.6,359.5,0.5,1.4,7.2,0.15,26.3,27.5,"09:20:08",1
"17/08/23","09:40",0.0,31.0,75.1,1009.0,126.8,0.6,2.2,150.1,0.33,26.1,27.7,"09:32:48",1
"17/08/23","09:50",0.0,31.3,73.5,1009.3,240.3,1.0,2.4,243.8,0.36,26.0,28.0,"09:45:52",1
"17/08/23","10:00",0.0,31.4,71.3,1009.5,302.6,1.0,3.2,345.3,0.36,25.6,28.1,"09:58:00",1
"17/08/23","10:10",0.0,31.4,72.4,1009.3,293.9,1.1,2.6,354.4,0.32,25.9,28.2,"10:00:08",1
"17/08/23","10:20",0.0,31.5,70.6,1009.0,309.1,1.2,3.1,336.8,0.38,25.5,28.5,"10:17:12",1
"17/08/23","10:30",0.0,31.6,69.7,1008.6,313.2,1.2,3.4,336.3,0.33,25.4,28.3,"10:22:08",1
"17/08/23","10:40",0.0,31.3,71.8,1008.8,302.7,0.8,2.9,244.1,0.24,25.6,28.8,"10:35:28",1
"17/08/23","10:50",0.0,32.7,67.0,1008.6,268.1,0.8,2.2,223.6,0.48,25.8,28.7,"10:46:00",1
"17/08/23","11:00",0.0,32.9,65.6,1009.0,332.9,1.2,2.5,353.0,0.55,25.6,29.0,"10:59:36",1
"17/08/23","11:10",0.0,33.9,63.2,1009.0,195.1,0.8,2.6,222.3,0.59,26.0,29.4,"11:00:02",1
"17/08/23","11:20",0.0,33.4,63.3,1009.0,58.3,1.2,3.6,206.4,0.42,25.5,29.2,"11:10:40",1
"17/08/23","11:30",0.0,33.5,65.1,1009.0,229.9,0.8,3.1,333.2,0.34,26.1,29.5,"11:20:08",1
"17/08/23","11:40",0.0,33.9,61.5,1009.0,283.5,0.5,2.4,225.5,0.44,25.5,29.6,"11:35:04",1
"17/08/23","11:50",0.0,33.6,58.8,1009.0,325.5,0.8,2.5,352.4,0.39,24.5,29.9,"11:45:44",1
"17/08/23","12:00",0.0,33.1,59.9,1008.6,248.0,1.1,3.6,222.4,0.31,24.3,30.2,"11:55:12",1
"17/08/23","12:10",0.0,32.5,63.3,1008.1,267.5,1.0,3.6,249.1,0.17,24.7,30.2,"12:02:24",1
"17/08/23","12:20",0.0,33.0,62.8,1008.3,302.4,0.8,2.4,261.2,0.24,25.0,30.1,"12:10:32",1
"17/08/23","12:30",0.0,32.9,62.7,1007.8,301.6,1.3,3.1,308.4,0.27,24.9,30.1,"12:24:24",1
"17/08/23","12:40",0.0,32.5,63.6,1007.6,248.2,1.2,3.3,224.7,0.19,24.7,30.2,"12:33:44",1
"17/08/23","12:50",0.0,32.9,64.1,1007.4,317.4,0.8,4.0,348.2,0.24,25.2,30.2,"12:43:36",1
"17/08/23","13:00",0.0,33.6,61.1,1007.6,294.2,1.2,3.6,331.9,0.40,25.1,30.2,"12:57:20",1
"17/08/23","13:10",0.0,33.5,59.4,1007.6,331.1,1.6,3.4,355.3,0.36,24.5,30.3,"13:04:16",1
"17/08/23","13:20",0.0,33.5,61.0,1007.6,301.2,0.8,2.4,324.1,0.29,25.0,30.5,"13:19:20",1
"17/08/23","13:30",0.0,34.0,58.2,1007.4,306.5,1.6,4.2,353.7,0.46,24.7,30.6,"13:20:48",1
"17/08/23","13:40",0.0,34.1,57.2,1007.8,275.9,1.3,4.3,227.8,0.50,24.5,30.9,"13:35:44",1
"17/08/23","13:50",0.0,34.3,55.2,1007.4,278.1,1.5,4.8,225.6,0.44,24.1,31.1,"13:41:12",1
"17/08/23","14:00",0.0,34.3,58.5,1007.6,349.3,1.1,3.7,344.8,0.37,25.0,31.1,"13:54:48",1
"17/08/23","14:10",0.0,33.3,60.1,1007.6,341.9,1.5,3.5,341.6,0.26,24.5,31.0,"14:07:44",1
"17/08/23","14:20",0.0,33.1,60.5,1007.1,356.5,1.8,4.2,346.1,0.25,24.5,31.0,"14:14:08",1
"17/08/23","14:30",0.0,32.9,62.6,1006.7,349.7,1.3,4.3,347.8,0.21,24.9,30.7,"14:26:16",1
"17/08/23","14:40",0.0,33.6,61.9,1006.7,11.9,1.0,2.1,312.3,0.27,25.3,31.0,"14:37:36",1
"17/08/23","14:50",0.0,33.6,59.1,1006.7,18.9,1.3,3.5,42.3,0.34,24.5,30.9,"14:44:16",1
"17/08/23","15:00",0.0,34.2,59.6,1006.7,79.2,0.7,1.8,59.9,0.34,25.2,30.8,"14:54:48",1
"17/08/23","15:10",0.0,34.0,57.3,1006.9,82.3,0.7,2.1,81.6,0.29,24.4,31.0,"15:05:04",1
"17/08/23","15:20",0.0,33.7,60.0,1006.7,129.2,0.7,1.8,117.0,0.25,24.9,31.0,"15:15:52",1
"17/08/23","15:30",0.0,33.1,64.0,1006.7,121.4,1.0,2.0,119.2,0.18,25.4,31.2,"15:22:16",1
"17/08/23","15:40",0.0,32.2,64.8,1006.2,169.6,1.5,2.7,168.7,0.10,24.8,31.0,"15:35:12",1
"17/08/23","15:50",0.0,32.9,66.0,1005.7,163.5,1.6,3.2,192.6,0.22,25.7,31.0,"15:46:32",1
"17/08/23","16:00",0.0,32.8,64.3,1006.0,179.1,1.7,3.4,213.1,0.19,25.2,30.8,"15:52:56",1
"17/08/23","16:10",0.0,32.4,65.3,1005.7,168.4,1.3,2.5,154.2,0.07,25.1,30.9,"16:06:56",1
"17/08/23","16:20",0.0,32.2,65.7,1005.7,182.3,1.5,3.4,222.9,0.06,25.0,30.7,"16:16:40",1
"17/08/23","16:30",0.0,31.9,69.4,1005.5,202.1,1.6,3.5,225.2,0.06,25.6,30.7,"16:22:08",1
"17/08/23","16:40",0.0,31.7,68.0,1005.2,197.5,1.6,3.7,204.5,0.06,25.1,30.8,"16:35:52",1
"17/08/23","16:50",0.0,31.6,71.4,1005.5,189.4,1.1,2.1,227.8,0.05,25.8,30.5,"16:44:00",1
"17/08/23","17:00",0.0,31.4,71.6,1005.5,173.0,1.0,2.7,230.0,0.05,25.7,30.5,"16:53:12",1
"17/08/23","17:10",0.0,31.5,70.8,1005.2,185.5,1.6,2.6,211.5,0.06,25.6,30.4,"17:03:44",1
"17/08/23","17:20",0.0,31.0,73.4,1005.2,164.3,1.8,3.5,217.0,0.01,25.7,30.2,"17:12:56",1
"17/08/23","17:30",0.0,30.4,74.6,1005.0,164.2,1.1,3.9,230.7,0.00,25.4,30.2,"17:20:48",1
"17/08/23","17:40",0.0,30.3,75.4,1004.8,99.4,0.8,1.6,121.3,0.01,25.5,30.0,"17:39:12",1
"17/08/23","17:50",0.0,30.2,75.5,1004.5,128.0,0.7,2.6,116.6,0.01,25.4,29.9,"17:49:36",1
"17/08/23","18:00",0.0,29.8,76.1,1004.8,144.3,1.5,3.6,130.1,0.01,25.2,29.9,"17:50:24",1
"17/08/23","18:10",0.0,29.1,78.0,1004.8,145.9,0.3,1.3,144.9,0.00,24.9,29.7,"18:00:02",1
"17/08/23","18:20",0.2,28.8,80.6,1005.0,238.8,0.7,1.7,194.9,0.00,25.2,29.4,"18:11:36",1
"17/08/23","18:30",0.0,28.4,83.0,1005.2,359.7,0.5,1.3,345.2,0.00,25.3,29.5,"18:24:48",1
"17/08/23","18:40",0.0,28.0,83.8,1005.5,305.2,0.6,1.9,329.6,0.00,25.0,29.3,"18:30:02",1
"17/08/23","18:50",0.0,27.6,84.7,1005.7,300.3,1.0,2.1,325.3,0.00,24.8,29.3,"18:42:48",1
"17/08/23","19:00",0.0,27.4,85.6,1005.7,340.2,1.3,2.4,345.6,0.00,24.8,29.2,"18:53:52",1
"17/08/23","19:10",0.0,27.4,86.9,1006.0,346.4,1.0,2.4,334.4,0.00,25.1,29.1,"19:00:16",1
"17/08/23","19:20",0.0,27.2,87.4,1006.0,329.3,0.8,2.1,335.1,0.00,25.0,29.1,"19:14:00",1
"17/08/23","19:30",0.0,27.1,88.1,1006.0,297.8,0.6,1.7,331.5,0.00,25.0,28.9,"19:29:44",1
"17/08/23","19:40",0.0,27.1,88.5,1006.2,315.4,0.7,1.3,332.0,0.00,25.1,29.0,"19:31:44",1
"17/08/23","19:50",0.0,27.1,88.7,1006.2,320.9,0.7,1.7,344.5,0.00,25.1,28.7,"19:46:24",1
"17/08/23","20:00",0.0,27.1,89.1,1006.0,314.5,0.7,1.2,330.1,0.00,25.2,28.7,"19:56:08",1
"17/08/23","20:10",0.0,27.0,89.2,1006.4,283.6,0.6,1.2,237.2,0.00,25.1,28.7,"20:06:00",1
"17/08/23","20:20",0.0,27.0,89.5,1006.4,296.2,0.6,1.9,331.0,0.00,25.2,28.7,"20:11:28",1
"17/08/23","20:30",0.0,27.0,89.8,1006.2,315.2,0.7,2.2,326.1,0.00,25.2,28.5,"20:22:16",1
"17/08/23","20:40",0.0,26.9,89.8,1006.7,291.2,0.6,1.1,343.0,0.00,25.1,28.7,"20:31:04",1
"17/08/23","20:50",0.0,26.8,90.0,1006.4,296.0,1.0,2.5,339.8,0.00,25.1,28.4,"20:47:52",1
"17/08/23","21:00",0.0,26.8,89.9,1006.9,334.6,1.6,2.7,343.8,0.00,25.0,28.5,"20:54:48",1
"17/08/23","21:10",0.0,26.8,89.8,1006.7,333.9,1.7,3.6,329.2,0.00,25.0,28.3,"21:02:24",1
"17/08/23","21:20",0.0,26.9,89.7,1006.4,337.8,1.5,2.5,349.2,0.00,25.1,28.2,"21:18:24",1
"17/08/23","21:30",0.0,26.8,89.6,1006.2,335.8,1.5,2.7,338.9,0.00,25.0,28.2,"21:21:04",1
"17/08/23","21:40",0.0,26.7,89.7,1006.4,287.7,0.6,1.6,332.0,0.00,24.9,28.1,"21:31:52",1
"17/08/23","21:50",0.0,26.6,89.8,1006.7,308.8,1.0,2.5,350.8,0.00,24.8,28.2,"21:48:16",1
"17/08/23","22:00",0.0,26.6,90.0,1006.4,339.2,1.6,3.1,345.8,0.00,24.9,28.0,"21:57:36",1
"17/08/23","22:10",0.0,26.5,90.1,1006.2,313.1,1.1,2.5,342.8,0.00,24.8,28.0,"22:02:48",1
"17/08/23","22:20",0.0,26.5,90.2,1006.2,263.0,1.1,2.0,284.4,0.00,24.8,28.0,"22:15:20",1
"17/08/23","22:30",0.0,26.5,90.3,1006.4,327.2,1.3,2.5,324.2,0.00,24.8,27.8,"22:23:12",1
"17/08/23","22:40",0.0,26.5,90.2,1006.4,358.2,0.8,1.9,333.5,0.00,24.8,27.9,"22:30:32",1
"17/08/23","22:50",0.0,26.4,90.3,1006.4,316.2,0.6,1.2,350.4,0.00,24.7,27.8,"22:40:56",1
"17/08/23","23:00",0.0,26.2,90.6,1006.7,278.9,0.3,0.6,276.1,0.00,24.6,27.9,"22:58:08",1
"17/08/23","23:10",0.0,26.0,90.8,1006.2,292.8,0.6,0.9,285.3,0.00,24.4,27.7,"23:00:32",1
"17/08/23","23:20",0.0,25.9,91.0,1006.0,309.4,0.5,1.3,341.4,0.00,24.4,27.7,"23:14:40",1
"17/08/23","23:30",0.0,25.8,91.5,1006.7,338.5,0.8,1.2,348.9,0.00,24.3,27.6,"23:24:08",1
"17/08/23","23:40",0.0,25.8,91.8,1006.4,290.8,0.6,1.0,341.2,0.00,24.4,27.8,"23:31:28",1
"17/08/23","23:50",0.0,25.7,92.1,1006.4,267.2,0.5,1.1,241.0,0.00,24.4,27.3,"23:47:44",1
"17/08/23","24:00",0.0,25.6,92.1,1006.4,305.3,0.8,1.4,325.6,0.00,24.3,27.4,"23:59:36",1
